Location: ????????
(60.5616°N, 46.8254°E)
Time: 08:12:39
(UTC+00:00)

Cosmos 2322 Rocket - Pass Details

Date: 18 February 2020
Orbit: 832 x 851 km, 71.0° (Epoch: 03 April)

Event Time Altitude Azimuth Distance (km) Brightness Sun altitude
Exits shadow 22:21:36 25° 47° (NE) 1,670 4.1 -39.1°
Drops below altitude 10° 22:23:53 10° 42° (NE) 2,492 5.3 -39.0°
Sets 22:26:21 0° 40° (NE) 3,431 6.2 -38.8°
